[[{"header":{"parameterUnit":"m.s-1","parameterCategory":1,"la1":30.2991,"la2":30.254,"lo1":-89.0895,"lo2":-89.0444,"dy":0.0017,"dx":0.0017,"nx":28,"ny":28,"refTime":"2024-05-11T21:00:00:Z","depth":0,"parameterNumber":2,"parameterNumberName":"U-component_of_WINDS"},"data":[0,0,0,0,0,0,0,0,0,0,0,0,0,0,0,0,0,0,0,0,0,0,0,0,0,0,0,0,0,0,0,0,0,0,0,0,0,0,0,0,0,0,0,0,0,0,0,0,0,0,0,0,0,0,0,0,0,0,-4.5406,-4.5407,0,-4.5455,-4.5455,-4.5456,-4.5283,-4.5278,-4.5273,-4.5268,-4.532,-4.5326,-4.5332,0,0,0,0,0,0,0,0,0,0,0,0,0,-4.5164,-4.517,-4.5406,-4.5407,-4.5407,-4.5455,-4.5456,-4.5456,-4.5284,-4.5277,-4.5271,-4.5265,-4.5318,-4.5325,-4.5333,0,0,0,0,0,0,0,0,0,0,0,0,0,-4.5247,-4.5172,-4.5406,-4.5327,-4.532,-4.5455,-4.5456,-4.5456,-4.5285,-4.5277,-4.527,-4.5262,-4.5315,-4.5324,-4.5334,-4.5547,0,0,-4.5362,-4.5366,0,0,0,0,0,0,0,0,-4.5243,-4.5256,-4.5338,-4.5333,-4.5326,-4.5355,-4.5389,-4.5487,-4.5287,-4.5299,-4.5267,-4.5258,-4.5338,-4.5345,-4.5371,-4.5549,-4.5552,-4.5363,-4.5369,-4.5373,-4.5375,0,0,0,0,0,0,0,-4.5237,-4.5253,-4.5425,-4.5339,-4.5332,-4.5289,-4.5292,-4.5407,-4.5361,-4.5297,-4.5285,-4.5293,-4.5333,-4.5363,-4.5371,-4.5552,-4.5363,-4.5371,-4.5377,-4.538,-4.5907,-4.5915,0,0,0,0,0,0,-4.5242,-4.525,-4.5424,-4.5427,-4.5264,-4.53,-4.5304,-4.5353,-4.536,-4.5353,-4.5299,-4.5284,-4.5351,-4.536,-4.5372,-4.5622,-4.5373,-4.5381,-4.5387,-4.5899,-4.5909,-4.5918,0,0,0,0,0,0,-4.5237,-4.5259,-4.5422,-4.5335,-4.5352,-4.5312,-4.537,-4.5358,-4.5388,-4.5361,-4.5352,-4.5338,-4.5345,-4.5359,-4.5504,-4.5622,-4.5386,-4.5394,-4.5889,-4.5902,-4.5914,-4.6124,0,0,0,0,0,0,-4.5231,-4.5258,-4.5339,-4.5338,-4.5358,-4.5554,-4.5377,-4.5365,-4.5404,-4.5385,-4.5395,-4.5389,-4.534,-4.5492,-4.5514,-4.563,-4.5401,-4.5878,-4.5895,-4.591,-4.6107,-4.6142,-4.6173,0,0,0,0,0,-4.5223,-4.5397,-4.5344,-4.5366,-4.5458,-4.5561,-4.5572,-4.5511,-4.5414,-4.5495,-4.5478,-4.5389,-4.5605,-4.5508,-4.5531,-4.5653,-4.5871,-4.589,-4.5908,-4.6092,-4.6135,-4.6172,0,0,0,0,0,0,-4.5414,-4.5395,-4.5336,-4.5515,-4.5541,-4.5531,-4.5632,-4.5559,-4.5613,-4.5594,-4.5515,-4.5519,-4.5679,-4.5679,-4.5572,-4.5859,-4.5721,-4.5746,-4.5853,-4.5894,-4.5926,-4.5923,-4.5409,0,0,0,0,0,-4.5477,-4.5562,-4.5541,-4.5701,-4.5716,-4.5673,-4.5715,-4.5665,-4.5689,-4.5699,-4.5692,-4.5719,-4.5793,-4.5843,-4.5909,-4.6105,-4.6105,-4.62,-4.6233,-4.6261,-4.6283,-4.6387,-4.6429,-4.598,-4.598,-4.598,0,0,-4.5608,-4.5608,-4.5667,-4.5739,-4.5753,-4.5843,-4.5683,-4.5785,-4.5851,-4.5715,-4.5851,-4.5848,-4.5872,-4.6044,-4.6119,-4.605,-4.6407,-4.6285,-4.6307,-4.6314,-4.641,-4.6453,-4.6491,-4.5993,-4.5991,-4.5989,0,0,-4.5892,-4.5901,-4.6035,-4.6052,-4.6074,-4.6043,-4.6076,-4.6077,-4.6069,-4.6205,-4.6104,-4.6182,-4.631,-4.6332,-4.636,-4.6651,-4.6572,-4.6675,-4.6849,-4.6951,-4.6986,-4.7017,-4.7121,-4.7159,-4.6697,-4.6698,-4.6698,0,-4.6052,-4.6183,-4.6113,-4.6222,-4.6257,-4.6136,-4.6271,-4.6291,-4.6335,-4.6362,-4.6283,-4.6441,-4.6449,-4.6624,-4.6695,-4.6722,-4.6756,-4.6674,-4.6986,-4.7017,-4.7045,-4.7143,-4.7183,-4.671,-4.6709,-4.6707,-4.6706,0,-4.6379,-4.6471,-4.6577,-4.6621,-4.6668,-4.6789,-4.6737,-4.6793,-4.6739,-4.6717,-4.6856,-4.6861,-4.6926,-4.6964,-4.6913,-4.7132,-4.7088,-4.7,-4.686,-4.7101,-4.7192,-4.7229,-4.6728,-4.6724,-4.672,-4.6717,0,0,-4.6786,-4.6789,-4.6829,-4.6847,-4.6863,-4.6933,-4.7049,-4.7112,-4.7161,-4.7195,-4.729,-4.7401,-4.7319,-4.7351,-4.7301,-4.739,-4.762,-4.729,-4.7289,-4.7351,-4.7862,-4.7929,-4.7974,-4.7567,-4.7574,-4.758,-4.786,0,-4.7066,-4.7264,-4.7203,-4.7403,-4.7487,-4.7373,-4.7474,-4.7495,-4.7477,-4.7546,-4.7525,-4.7606,-4.7491,-4.7509,-4.7592,-4.7575,-4.7722,-4.7554,-4.7656,-4.766,-4.7654,-4.8021,-4.8093,-4.8357,-4.7895,-4.7901,-4.7905,0,-4.7419,-4.7466,-4.7674,-4.7674,-4.7707,-4.7799,-4.7851,-4.7919,-4.794,-4.792,-4.7955,-4.7886,-4.8,-4.7859,-4.8015,-4.7902,-4.794,-4.7938,-4.7946,-4.7954,-4.7798,-4.804,-4.844,-4.848,-4.7961,-4.7956,-4.7952,0,-4.7696,-4.7811,-4.795,-4.7969,-4.7973,-4.804,-4.8045,-4.8058,-4.8099,-4.8145,-4.8171,-4.823,-4.8262,-4.8309,-4.8258,-4.8161,-4.8422,-4.8277,-4.8409,-4.8411,-4.847,-4.8467,-4.8883,-4.8494,-4.8494,-4.8493,-4.8492,0,-4.8015,-4.8146,-4.8074,-4.816,-4.8304,-4.8233,-4.8377,-4.8369,-4.8382,-4.8464,-4.8369,-4.8448,-4.8375,-4.8448,-4.8409,-4.8544,-4.8559,-4.8547,-4.8535,-4.8556,-4.8558,-4.858,-4.8561,-4.8503,-4.8501,-4.8499,-4.8497,0,-4.8348,-4.8305,-4.8449,-4.8441,-4.8442,-4.8549,-4.8541,-4.862,-4.8594,-4.87,-4.872,-4.8681,-4.8761,-4.8715,-4.8797,-4.8771,-4.8946,-4.8909,-4.8939,-4.893,-4.9065,-4.9053,-4.951,-4.9566,-4.9141,-4.9146,-4.9149,0,-4.8555,-4.8654,-4.8656,-4.8703,-4.8714,-4.8793,-4.8834,-4.8768,-4.8815,-4.8845,-4.8921,-4.8993,-4.9047,-4.9181,-4.916,-4.9223,-4.9187,-4.9342,-4.9195,-4.9213,-4.9189,-4.9184,-4.9194,-4.9372,-4.9377,-4.9381,-4.9385,0,-4.8927,-4.89,-4.8963,-4.9019,-4.907,-4.9111,-4.9144,-4.9189,-4.9122,-4.918,-4.9261,-4.9303,-4.9386,-4.946,-4.9513,-4.9517,-4.9441,-4.9431,-4.9465,-4.9487,-4.9501,-4.9496,-4.9021,-4.9421,-4.9417,-4.9415,-4.9413,-4.9411,-4.9203,-4.9285,-4.9299,-4.9372,-4.939,-4.9422,-4.9496,-4.9479,-4.9545,-4.9608,-4.9564,-4.966,-4.9677,-4.974,-4.9755,-4.9829,-4.9766,-4.9816,-4.9828,-4.9842,-4.986,-4.9489,-4.9838,-4.9837,-4.9836,-4.9835,-4.9835,0,-4.957,-4.9573,-4.964,-4.9689,-4.9747,-4.9668,-4.97,-4.9754,-4.9839,-4.9861,-4.9916,-5.0009,-5.0079,-5.0063,-5.0126,-5.0188,-5.0155,-5.0207,-5.0202,-5.0205,-4.9913,-4.9877,-5.0233,-5.0233,-5.0233,-5.0233,-5.0233,-5.0233,-4.9767,-4.9901,-4.9877,-5.0019,-5.002,-5.0113,-5.0138,-5.0168,-5.0185,-5.0293,-5.035,-5.0339,-5.0346,-5.0408,-5.0469,-5.0462,-5.049,-5.0556,-5.0537,-5.0265,-5.0225,-5.0188,-5.0154,-5.0563,-5.0563,-5.0823,-5.0825,-5.0827]},{"header":{"parameterUnit":"m.s-1","parameterCategory":1,"la1":30.2991,"la2":30.254,"lo1":-89.0895,"lo2":-89.0444,"dy":0.0017,"dx":0.0017,"nx":28,"ny":28,"refTime":"2024-05-11T21:00:00:Z","depth":0,"parameterNumber":3,"parameterNumberName":"V-component_of_WINDS"},"data":[0,0,0,0,0,0,0,0,0,0,0,0,0,0,0,0,0,0,0,0,0,0,0,0,0,0,0,0,0,0,0,0,0,0,0,0,0,0,0,0,0,0,0,0,0,0,0,0,0,0,0,0,0,0,0,0,0,0,-1.8404,-1.8404,0,-1.8408,-1.8408,-1.8408,-1.8383,-1.8382,-1.8381,-1.838,-1.8384,-1.8385,-1.8386,0,0,0,0,0,0,0,0,0,0,0,0,0,-1.8372,-1.8373,-1.8404,-1.8404,-1.8404,-1.8408,-1.8408,-1.8408,-1.8383,-1.8382,-1.8381,-1.838,-1.8384,-1.8385,-1.8386,0,0,0,0,0,0,0,0,0,0,0,0,0,-1.8382,-1.8373,-1.8404,-1.8392,-1.8391,-1.8408,-1.8408,-1.8408,-1.8383,-1.8382,-1.8381,-1.838,-1.8384,-1.8385,-1.8386,-1.8415,0,0,-1.839,-1.839,0,0,0,0,0,0,0,0,-1.8382,-1.8383,-1.8393,-1.8392,-1.8391,-1.8394,-1.8398,-1.841,-1.8383,-1.8386,-1.838,-1.8379,-1.8388,-1.8389,-1.8392,-1.8415,-1.8415,-1.839,-1.839,-1.8391,-1.8391,0,0,0,0,0,0,0,-1.8381,-1.8383,-1.8405,-1.8393,-1.8392,-1.8386,-1.8386,-1.8401,-1.8393,-1.8385,-1.8384,-1.8384,-1.8388,-1.8391,-1.8392,-1.8415,-1.839,-1.8391,-1.8391,-1.8392,-1.8461,-1.8462,0,0,0,0,0,0,-1.8382,-1.8383,-1.8405,-1.8405,-1.8384,-1.8387,-1.8387,-1.8394,-1.8393,-1.8392,-1.8385,-1.8383,-1.839,-1.8391,-1.8392,-1.8424,-1.8391,-1.8392,-1.8393,-1.846,-1.8461,-1.8462,0,0,0,0,0,0,-1.8382,-1.8384,-1.8405,-1.8394,-1.8396,-1.8389,-1.8396,-1.8395,-1.8398,-1.8393,-1.8391,-1.839,-1.8389,-1.839,-1.8409,-1.8424,-1.8393,-1.8394,-1.8458,-1.846,-1.8462,-1.849,0,0,0,0,0,0,-1.8381,-1.8384,-1.8396,-1.8394,-1.8396,-1.8422,-1.8397,-1.8395,-1.84,-1.8398,-1.8397,-1.8396,-1.8388,-1.8408,-1.841,-1.8425,-1.8395,-1.8457,-1.8459,-1.8461,-1.8488,-1.8493,-1.8497,0,0,0,0,0,-1.838,-1.8404,-1.8396,-1.8399,-1.841,-1.8423,-1.8425,-1.8415,-1.8402,-1.8412,-1.8409,-1.8396,-1.8423,-1.841,-1.8413,-1.8428,-1.8456,-1.8458,-1.8461,-1.8486,-1.8492,-1.8497,0,0,0,0,0,0,-1.8407,-1.8403,-1.8395,-1.8419,-1.8422,-1.8419,-1.8432,-1.8422,-1.8428,-1.8425,-1.8413,-1.8413,-1.8434,-1.8433,-1.8419,-1.8455,-1.8437,-1.844,-1.8455,-1.846,-1.8465,-1.8464,-1.8396,0,0,0,0,0,-1.8416,-1.8427,-1.8423,-1.8445,-1.8447,-1.844,-1.8445,-1.8437,-1.8439,-1.844,-1.8438,-1.844,-1.8449,-1.8455,-1.8463,-1.8488,-1.8487,-1.85,-1.8505,-1.8509,-1.8511,-1.8523,-1.8528,-1.8471,-1.8471,-1.847,0,0,-1.8435,-1.8434,-1.8442,-1.8451,-1.8452,-1.8463,-1.8441,-1.8454,-1.8461,-1.8442,-1.8459,-1.8458,-1.8459,-1.8481,-1.8491,-1.8481,-1.8527,-1.8512,-1.8515,-1.8515,-1.8526,-1.8531,-1.8536,-1.8472,-1.8472,-1.8472,0,0,-1.8474,-1.8475,-1.8492,-1.8494,-1.8495,-1.849,-1.8495,-1.8493,-1.8491,-1.8508,-1.8494,-1.8503,-1.8519,-1.852,-1.8523,-1.8562,-1.8549,-1.8565,-1.8587,-1.8599,-1.8604,-1.8607,-1.862,-1.8624,-1.8567,-1.8567,-1.8567,0,-1.8496,-1.8513,-1.8503,-1.8516,-1.852,-1.8503,-1.852,-1.8522,-1.8526,-1.8529,-1.8519,-1.8537,-1.8537,-1.8558,-1.8567,-1.8571,-1.8574,-1.8564,-1.8604,-1.8608,-1.8611,-1.8623,-1.8627,-1.8569,-1.8569,-1.8569,-1.8569,0,-1.854,-1.8551,-1.8565,-1.8569,-1.8574,-1.859,-1.8581,-1.8588,-1.858,-1.8576,-1.8593,-1.8593,-1.8599,-1.8604,-1.8597,-1.8624,-1.8618,-1.8606,-1.8587,-1.8618,-1.8629,-1.8633,-1.8572,-1.8571,-1.857,-1.857,0,0,-1.8595,-1.8593,-1.8598,-1.8599,-1.86,-1.8608,-1.8623,-1.8629,-1.8634,-1.8638,-1.8649,-1.8662,-1.8651,-1.8654,-1.8647,-1.8657,-1.8686,-1.8644,-1.8643,-1.865,-1.8714,-1.8722,-1.8727,-1.8678,-1.8679,-1.868,-1.8713,0,-1.8632,-1.8656,-1.8647,-1.8671,-1.8681,-1.8665,-1.8677,-1.8678,-1.8675,-1.8682,-1.8679,-1.8688,-1.8673,-1.8674,-1.8684,-1.868,-1.8698,-1.8678,-1.8687,-1.8688,-1.8686,-1.8733,-1.8741,-1.8772,-1.8717,-1.8718,-1.8719,0,-1.8678,-1.8682,-1.8708,-1.8705,-1.8709,-1.872,-1.8724,-1.8732,-1.8733,-1.873,-1.8733,-1.8723,-1.8736,-1.8718,-1.8736,-1.8722,-1.8725,-1.8724,-1.8725,-1.8724,-1.8704,-1.8732,-1.8782,-1.8787,-1.8725,-1.8725,-1.8724,0,-1.8714,-1.8727,-1.8743,-1.8744,-1.8742,-1.875,-1.875,-1.875,-1.8754,-1.8758,-1.876,-1.8766,-1.8769,-1.8774,-1.8765,-1.8753,-1.8783,-1.8765,-1.878,-1.878,-1.8785,-1.8785,-1.8836,-1.8791,-1.8791,-1.8791,-1.879,0,-1.8754,-1.877,-1.8759,-1.8768,-1.8785,-1.8775,-1.8791,-1.8789,-1.8789,-1.8798,-1.8785,-1.8793,-1.8783,-1.879,-1.8784,-1.8798,-1.88,-1.8797,-1.8795,-1.8797,-1.8797,-1.8798,-1.8795,-1.8792,-1.8792,-1.8791,-1.8791,0,-1.8797,-1.879,-1.8806,-1.8803,-1.8802,-1.8815,-1.8812,-1.882,-1.8816,-1.8827,-1.8829,-1.8822,-1.883,-1.8822,-1.883,-1.8826,-1.8844,-1.884,-1.8844,-1.8842,-1.8857,-1.8855,-1.8909,-1.8914,-1.8867,-1.8868,-1.8868,0,-1.8822,-1.8834,-1.8831,-1.8836,-1.8836,-1.8844,-1.8848,-1.8839,-1.8843,-1.8844,-1.8853,-1.8859,-1.8864,-1.8877,-1.8873,-1.8878,-1.8873,-1.8891,-1.8873,-1.8875,-1.8871,-1.887,-1.887,-1.8894,-1.8895,-1.8895,-1.8896,0,-1.8868,-1.8864,-1.887,-1.8874,-1.8879,-1.8882,-1.8885,-1.8889,-1.8879,-1.8885,-1.8892,-1.8896,-1.8903,-1.891,-1.8914,-1.8913,-1.8902,-1.8902,-1.8905,-1.8907,-1.8908,-1.8906,-1.8852,-1.89,-1.89,-1.8899,-1.8899,-1.8899,-1.8901,-1.891,-1.8909,-1.8916,-1.8917,-1.8919,-1.8926,-1.8923,-1.8929,-1.8934,-1.8928,-1.8937,-1.8937,-1.8941,-1.8942,-1.8948,-1.894,-1.8946,-1.8947,-1.8948,-1.8949,-1.8908,-1.8949,-1.8949,-1.8949,-1.8949,-1.8949,0,-1.8945,-1.8943,-1.895,-1.8953,-1.8958,-1.8948,-1.895,-1.8954,-1.8962,-1.8963,-1.8968,-1.8976,-1.8982,-1.8978,-1.8983,-1.8989,-1.8984,-1.899,-1.8989,-1.8989,-1.8957,-1.8952,-1.8994,-1.8994,-1.8994,-1.8994,-1.8994,-1.8994,-1.8968,-1.8981,-1.8977,-1.8991,-1.8989,-1.8997,-1.8999,-1.9001,-1.9001,-1.9011,-1.9016,-1.9013,-1.9012,-1.9016,-1.9021,-1.902,-1.9021,-1.9029,-1.9026,-1.8996,-1.8991,-1.8987,-1.8983,-1.903,-1.903,-1.9057,-1.9057,-1.9058]}]]